Weather reports worldwide

Advertisment
Volkel, Netherlands (6375): temperature & dewpoint: 08.12.2019 02:00:00 - 14.12.2019 02:00:00 (CET)Volkel, Netherlands (6375): temperature 5cm: 08.12.2019 02:00:00 - 14.12.2019 02:00:00 (CET)Volkel, Netherlands (6375): wind speed & gusts: 08.12.2019 02:00:00 - 14.12.2019 02:00:00 (CET)Volkel, Netherlands (6375): wind direction: 08.12.2019 02:00:00 - 14.12.2019 02:00:00 (CET)Volkel, Netherlands (6375): reduced air pressure: 08.12.2019 02:00:00 - 14.12.2019 02:00:00 (CET)Volkel, Netherlands (6375): visibility: 08.12.2019 02:00:00 - 14.12.2019 02:00:00 (CET)Volkel, Netherlands (6375): precipitation: 08.12.2019 02:00:00 - 14.12.2019 02:00:00 (CET)
Date & Time tt [°C] td [°C] tt 5cm [°C] ff [km/h] ff [kn] fx [km/h] fx [kn] dd ppp [hPa] vv [km] rr [mm]
14.12.2019 02:00:00 5,4 3,0 4,7 22 12 32 18 SSW 982,8 10 0,0
14.12.2019 01:00:00 5,2 3,3 4,6 22 12 36 19 SSW 983,5 10 0,0
14.12.2019 00:00:00 5,3 3,2 4,4 15 8 32 18 SSW 983,9 10 0,0
13.12.2019 23:00:00 6,0 3,2 5,2 21 11 32 18 SW 984,5 10 0,0
13.12.2019 22:00:00 5,2 4,1 4,6 22 12 29 16 SW 984,6 10 0,0
13.12.2019 21:00:00 5,3 4,1 4,6 22 12 29 16 SW 984,6 10 0,0
13.12.2019 20:00:00 6,4 4,7 6,0 21 11 36 19 WSW 984,5 10 0,1
13.12.2019 19:00:00 6,4 5,2 5,7 18 10 32 18 WSW 983,5 10 0,2
13.12.2019 18:00:00 5,4 5,0 4,6 11 6 22 12 WSW 982,6 7 0,0
13.12.2019 17:00:00 4,8 4,4 4,6 11 6 22 12 W 981,8 5 0,4
13.12.2019 16:00:00 4,5 3,9 4,4 9 5 25 14 W 980,2 4,2 0,4
13.12.2019 15:00:00 4,4 4,0 4,5 9 5 25 14 WNW 978,6 4,1 0,0
13.12.2019 14:00:00 4,5 4,2 4,7 8 4 14 8 NW 976,8 4,7 0,0
13.12.2019 13:00:00 4,4 4,2 4,7 4 2 7 4 - 975,2 2,5 0,0
13.12.2019 12:00:00 4,1 4,0 4,3 8 4 22 12 ESE 974,3 2,9 0,0
13.12.2019 11:00:00 3,7 3,4 3,8 11 6 22 12 ESE 973,7 3,2 0,1
13.12.2019 10:00:00 3,4 2,9 3,3 15 8 25 14 ESE 973,1 5 0,1
13.12.2019 09:00:00 3,2 2,5 3,0 18 10 29 16 ESE 972,8 9 0,3
13.12.2019 08:00:00 3,2 2,2 2,9 21 11 29 16 ESE 972,7 10 0,7
13.12.2019 07:00:00 3,2 2,0 2,9 16 9 32 18 ESE 973,2 10 0,0
13.12.2019 06:00:00 3,0 2,1 2,8 21 11 32 18 SE 973,9 10 0,2
13.12.2019 05:00:00 3,2 1,9 3,0 21 11 36 19 SE 975,2 10 0,0
13.12.2019 04:00:00 3,1 1,9 2,9 22 12 36 19 SSE 976,7 10 0,1
13.12.2019 03:00:00 3,2 1,9 2,9 24 13 36 19 SSE 978,0 10 0,9
13.12.2019 02:00:00 3,6 2,3 3,3 22 12 36 19 SSE 979,4 10 0,7
13.12.2019 01:00:00 3,9 2,2 3,4 24 13 40 21 SSE 981,1 10 0,5
13.12.2019 00:00:00 3,9 1,6 3,4 24 13 36 19 SSE 983,1 10 0,4
12.12.2019 23:00:00 4,3 0,5 3,6 21 11 36 19 SE 984,6 10 0,0
12.12.2019 22:00:00 4,2 0,5 3,7 21 11 32 18 SE 986,4 10 0,0
12.12.2019 21:00:00 4,4 0,4 3,8 22 12 36 19 SSE 988,2 10 0,0
12.12.2019 20:00:00 4,4 0,6 4,0 21 11 36 19 SSE 989,7 10 0,0
12.12.2019 19:00:00 4,3 0,4 3,6 21 11 36 19 SSE 991,3 10 0,0
12.12.2019 18:00:00 4,5 0,7 3,8 21 11 40 21 SSE 993,0 10 0,0
12.12.2019 17:00:00 4,5 0,7 3,4 18 10 40 21 S 994,1 10 0,0
12.12.2019 16:00:00 5,0 1,4 4,1 16 9 36 19 S 995,7 10 0,0
12.12.2019 15:00:00 5,8 1,8 5,2 21 11 36 19 S 996,8 10 0,0
12.12.2019 14:00:00 5,6 2,6 5,5 21 11 32 18 S 998,0 10 0,0
12.12.2019 13:00:00 5,0 2,5 5,4 22 12 36 19 SSW 999,5 10 0,0
12.12.2019 12:00:00 4,3 2,7 4,3 22 12 32 18 SSW 1000,5 10 0,0
12.12.2019 11:00:00 4,0 2,7 4,1 18 10 29 16 SSW 1001,5 10 0,0
12.12.2019 10:00:00 3,4 2,4 2,7 11 6 18 10 SSW 1001,9 10 0,0
12.12.2019 09:00:00 2,4 1,9 1,0 11 6 18 10 SSW 1002,0 8 0,0
12.12.2019 08:00:00 3,2 2,5 2,6 16 9 22 12 SW 1002,1 10 0,0
12.12.2019 07:00:00 4,1 3,2 3,5 16 9 29 16 SW 1002,0 10 0,0
12.12.2019 06:00:00 4,2 3,2 3,6 18 10 25 14 SW 1001,8 10 0,0
12.12.2019 05:00:00 4,8 3,8 4,5 18 10 25 14 SW 1002,0 10 0,0
12.12.2019 04:00:00 4,3 3,4 3,8 16 9 22 12 SW 1002,1 10 0,0
12.12.2019 03:00:00 4,3 3,5 3,8 13 7 22 12 SSW 1002,3 10 0,0
12.12.2019 02:00:00 4,3 3,5 4,1 15 8 25 14 SSW 1002,5 10 0,0
12.12.2019 01:00:00 3,9 3,3 3,3 11 6 18 10 S 1002,6 10 0,0
12.12.2019 00:00:00 3,8 3,3 2,7 13 7 18 10 S 1003,1 9 0,0
11.12.2019 23:00:00 4,2 3,6 3,2 13 7 22 12 S 1003,5 9 0,0
11.12.2019 22:00:00 4,3 3,8 3,5 11 6 18 10 S 1004,0 8 0,0
11.12.2019 21:00:00 4,6 4,1 3,9 13 7 18 10 S 1004,2 8 0,0
11.12.2019 20:00:00 4,4 4,0 3,3 9 5 14 8 S 1004,5 6 0,0
11.12.2019 19:00:00 5,0 4,4 4,3 11 6 14 8 S 1004,9 9 0,0
11.12.2019 18:00:00 5,3 4,5 4,4 9 5 14 8 SSW 1005,0 10 0,0
11.12.2019 17:00:00 5,6 4,9 4,9 9 5 14 8 SSW 1005,0 10 0,0
11.12.2019 16:00:00 5,7 4,9 5,2 9 5 18 10 SSW 1005,0 10 0,0
11.12.2019 15:00:00 6,3 5,3 6,2 11 6 22 12 SW 1005,6 10 0,0
11.12.2019 14:00:00 6,3 5,5 6,3 15 8 18 10 SW 1005,9 10 0,0
11.12.2019 13:00:00 6,0 5,4 5,9 15 8 22 12 SSW 1006,8 10 0,0
11.12.2019 12:00:00 5,8 5,3 5,7 15 8 22 12 SSW 1007,4 10 0,0
11.12.2019 11:00:00 5,7 5,2 5,7 15 8 25 14 SW 1008,2 10 0,5
11.12.2019 10:00:00 5,8 5,3 5,6 16 9 22 12 SSW 1008,6 8 0,4
11.12.2019 09:00:00 5,9 5,4 5,7 15 8 25 14 SSW 1008,8 10 0,4
11.12.2019 08:00:00 5,9 5,4 5,7 15 8 22 12 SSW 1008,9 10 1,0
11.12.2019 07:00:00 6,1 5,5 5,8 18 10 29 16 SSW 1009,3 10 1,5
11.12.2019 06:00:00 6,2 5,4 5,9 21 11 32 18 SSW 1009,2 10 0,8
11.12.2019 05:00:00 5,9 5,1 5,6 22 12 36 19 SSW 1009,4 10 0,2
11.12.2019 04:00:00 5,8 4,9 5,5 28 15 43 23 SSW 1009,8 3,9 0,0
11.12.2019 03:00:00 6,7 3,9 6,4 31 17 54 29 SSW 1010,0 10 0,0
11.12.2019 02:00:00 6,9 3,2 6,4 31 17 50 27 SSW 1010,5 10 0,0
11.12.2019 01:00:00 7,3 0,9 6,7 29 16 47 25 S 1010,8 10 0,0
11.12.2019 00:00:00 7,0 0,4 6,5 29 16 47 25 S 1011,7 10 0,0
10.12.2019 23:00:00 6,8 0,0 6,3 29 16 47 25 S 1012,1 10 0,0
10.12.2019 22:00:00 6,4 0,0 5,7 29 16 47 25 S 1013,0 10 0,0
10.12.2019 21:00:00 6,3 0,0 5,6 29 16 54 29 S 1014,1 10 0,0
10.12.2019 20:00:00 5,7 0,7 5,2 29 16 50 27 S 1015,4 10 0,0
10.12.2019 19:00:00 5,2 0,8 4,7 28 15 43 23 S 1016,4 10 0,0
10.12.2019 18:00:00 5,1 0,9 4,5 28 15 43 23 S 1017,5 10 0,0
10.12.2019 17:00:00 5,2 1,0 4,6 26 14 43 23 S 1018,5 10 0,0
10.12.2019 16:00:00 5,4 1,1 4,8 24 13 43 23 S 1019,6 10 0,0
10.12.2019 15:00:00 5,7 1,3 5,3 28 15 43 23 S 1020,8 10 0,0
10.12.2019 14:00:00 6,0 1,5 6,1 26 14 40 21 SSW 1021,9 10 0,0
10.12.2019 13:00:00 5,6 1,5 5,9 24 13 36 19 SSW 1023,1 10 0,0
10.12.2019 12:00:00 5,2 1,9 5,4 21 11 29 16 SSW 1024,2 10 0,0
10.12.2019 11:00:00 3,7 2,0 3,3 16 9 22 12 SSW 1024,9 10 0,0
10.12.2019 10:00:00 1,9 1,2 1,0 11 6 18 10 SSW 1025,4 10 0,0
10.12.2019 09:00:00 1,1 0,7 -1,0 11 6 14 8 SW 1025,3 9 0,0
10.12.2019 08:00:00 -0,1 -0,5 -1,3 13 7 14 8 SW 1025,0 10 0,0
10.12.2019 07:00:00 -0,6 -1,0 -2,1 11 6 14 8 SSW 1024,6 10 0,0
10.12.2019 06:00:00 -0,3 -0,9 -1,6 11 6 14 8 SW 1024,4 10 0,0
10.12.2019 05:00:00 0,1 -0,7 -0,9 9 5 14 8 SW 1024,1 10 0,0
10.12.2019 04:00:00 1,4 0,2 0,4 9 5 18 10 WSW 1024,0 10 0,0
10.12.2019 03:00:00 4,2 1,4 3,5 9 5 18 10 W 1023,4 10 0,0
10.12.2019 02:00:00 3,2 1,0 1,5 9 5 14 8 WSW 1022,3 10 0,0
10.12.2019 01:00:00 4,0 0,8 2,7 11 6 22 12 W 1021,7 10 0,0
10.12.2019 00:00:00 4,2 2,0 2,1 11 6 18 10 W 1020,9 10 0,0
09.12.2019 23:00:00 3,8 1,4 2,2 11 6 18 10 W 1019,6 10 0,0
09.12.2019 22:00:00 4,1 1,3 2,2 8 4 18 10 W 1018,3 10 0,0
09.12.2019 21:00:00 5,0 1,4 3,5 11 6 22 12 WNW 1016,7 10 0,0
09.12.2019 20:00:00 5,5 1,5 3,9 11 6 29 16 NW 1015,1 10 0,0
09.12.2019 19:00:00 6,3 2,3 5,0 15 8 36 19 NW 1012,9 10 0,1
09.12.2019 18:00:00 6,3 4,4 6,0 9 5 43 23 NNW 1010,6 10 0,6
09.12.2019 17:00:00 6,9 4,0 6,3 22 12 43 23 NNW 1007,8 10 0,2
09.12.2019 16:00:00 7,1 5,1 6,7 13 7 36 19 NW 1004,8 10 0,6
09.12.2019 15:00:00 7,2 6,4 7,1 8 4 25 14 WNW 1001,9 10 0,3
09.12.2019 14:00:00 7,8 5,8 8,1 16 9 29 16 W 1000,0 10 0,0
09.12.2019 13:00:00 7,9 6,2 8,2 13 7 25 14 WSW 999,1 10 0,4
09.12.2019 12:00:00 7,5 6,0 7,3 18 10 32 18 W 998,5 10 0,1
09.12.2019 11:00:00 7,7 6,1 7,4 18 10 29 16 WSW 997,4 10 0,0
09.12.2019 10:00:00 7,2 6,1 6,8 15 8 25 14 W 995,8 10 0,0
09.12.2019 09:00:00 6,8 5,9 6,4 18 10 36 19 WSW 994,1 10 0,0
09.12.2019 08:00:00 6,3 5,5 6,0 24 13 36 19 SSW 992,8 6 0,2
09.12.2019 07:00:00 6,0 5,1 5,6 16 9 40 21 S 992,7 6 2,6
09.12.2019 06:00:00 6,4 4,7 5,9 21 11 40 21 SSW 993,6 10 0,7
09.12.2019 05:00:00 7,2 3,9 6,5 26 14 43 23 SSW 994,3 10 0,0
09.12.2019 04:00:00 7,4 3,8 6,8 28 15 50 27 SSW 995,2 10 0,0
09.12.2019 03:00:00 7,2 3,8 6,3 31 17 50 27 SSW 996,0 10 0,0
09.12.2019 02:00:00 7,1 3,9 6,3 34 18 54 29 SSW 996,5 10 0,3
09.12.2019 01:00:00 7,1 3,9 5,7 28 15 47 25 SSW 997,0 10 0,0
09.12.2019 00:00:00 6,6 3,7 5,5 31 17 43 23 SW 997,5 10 0,0
08.12.2019 23:00:00 6,9 3,6 5,7 28 15 40 21 SW 997,7 10 0,0
08.12.2019 22:00:00 7,1 4,0 6,2 34 18 43 23 SW 997,6 10 0,0
08.12.2019 21:00:00 7,9 4,4 7,0 31 17 58 31 SW 997,8 10 0,0
08.12.2019 20:00:00 8,9 5,2 8,2 39 21 54 29 SW 998,3 10 0,0
08.12.2019 19:00:00 8,8 4,8 7,7 24 13 32 18 SW 998,8 10 0,0
08.12.2019 18:00:00 8,1 4,5 7,0 21 11 32 18 SSW 999,2 10 0,0
08.12.2019 17:00:00 8,6 4,5 7,0 21 11 40 21 SW 999,8 10 0,0
08.12.2019 16:00:00 9,8 4,8 8,9 26 14 43 23 WSW 1000,0 10 0,0
08.12.2019 15:00:00 10,6 5,1 10,0 26 14 54 29 WSW 1000,1 10 0,0
08.12.2019 14:00:00 11,0 5,9 10,2 29 16 58 31 W 1000,2 10 0,0
08.12.2019 13:00:00 11,3 8,2 11,0 35 19 61 33 WSW 1000,0 10 0,0
08.12.2019 12:00:00 10,8 9,3 10,3 42 23 58 31 SW 1000,3 10 0,1
08.12.2019 11:00:00 9,7 9,0 9,5 37 20 50 27 SW 1000,6 2,7 0,6
08.12.2019 10:00:00 9,3 8,6 9,0 37 20 58 31 SSW 1001,1 4,1 0,4
08.12.2019 09:00:00 9,5 8,2 9,1 35 19 54 29 SSW 1001,4 4,1 0,0
08.12.2019 08:00:00 9,6 7,7 9,0 29 16 58 31 SW 1002,0 10 0,3
08.12.2019 07:00:00 10,1 6,5 9,4 39 21 58 31 SSW 1002,6 10 0,0
08.12.2019 06:00:00 9,7 6,1 9,2 34 18 47 25 SSW 1003,6 10 0,0
08.12.2019 05:00:00 9,6 6,0 8,9 28 15 50 27 SSW 1005,3 10 0,0
08.12.2019 04:00:00 9,3 5,4 8,7 31 17 58 31 SSW 1006,9 10 0,0
08.12.2019 03:00:00 9,0 5,3 8,4 29 16 43 23 SSW 1008,0 10 0,0
08.12.2019 02:00:00 8,8 5,4 8,1 26 14 40 21 SSW 1009,0 10 0,0

tt = temperature
td = dewpoint
tt 5cm = temperature 5cm
ff = wind speed
fx = gusts
dd = wind direction
ppp = reduced air pressure
vv = visibility
rr = precipitation

Next stations